Regional Weather Roundup
Issued by NWS Albany, NY

Home | Current Version | Previous Version | Text Only | Print | Product List | Glossary On
Versions: 1 2 3 4 5 6 7 8 9 10 11 12 13 14 15 16 17 18 19 20 21 22 23 24 25 26 27 28 29 30 31 32 33 34 35 36 37 38 39 40 41 42 43 44 45 46 47 48 49 50
000
ASUS41 KALY 231210
RWRALY

NEW YORK STATE HOURLY WEATHER ROUNDUP
NATIONAL WEATHER SERVICE ALBANY NY
700 AM EST SUN NOV 23 2014

NOTE: "FAIR" INDICATES FEW OR NO CLOUDS BELOW 12,000 FEET WITH NO
SIGNIFICANT WEATHER AND/OR NO OBSTRUCTIONS TO VISIBILITY.

NYZ032-033-038>043-046>054-057>066-NYZ062>081-231300-
EAST


CITY           SKY/WX    TMP DP  RH WIND       PRES   REMARKS
ALBANY         CLOUDY    41  28  60 S7        30.11R
GLENS FALLS    CLOUDY    37  32  82 S5        30.09R HAZE    WCI  33
POUGHKEEPSIE   CLOUDY    45  21  38 SW5       30.16R
NEWBURGH       MOCLDY    41  21  45 W9        30.16R
MONTGOMERY     CLOUDY    39  21  48 SW7       30.15R WCI  34
WHITE PLAINS   MOCLDY    41  21  44 CALM      30.17R
ISLIP          MOCLDY    44  24  45 SW15      30.19R
NEW YORK CITY  MOCLDY    44  22  41 SW7       30.20R
CENTRAL PARK   CLOUDY    44  22  41 W8        30.21S
$$

NYZ005>009-017-018-044>046-055-056-231300-
CENTRAL


CITY           SKY/WX    TMP DP  RH WIND       PRES   REMARKS
FULTON         CLOUDY    44  39  82 S6        30.04R
SYRACUSE       CLOUDY    49  40  71 S9        30.05R
ROME           CLOUDY    40  38  93 E7        30.07R
ELMIRA         CLOUDY    42  37  82 CALM      30.08R
BINGHAMTON     CLOUDY    42  29  59 SW8       30.08S
MONTICELLO     PTCLDY    36  25  64 CALM      30.13R
$$

NYZ026>034-041>043-231300-
NORTH


CITY           SKY/WX    TMP DP  RH WIND       PRES   REMARKS
WATERTOWN      CLOUDY    45  40  82 S6        30.02R
FORT DRUM      NOT AVBL
MASSENA        CLOUDY    41  41 100 SW6       30.02R FOG
SARANAC LAKE   CLOUDY    38  38 100 SW7       29.97R FOG     WCI  33
PLATTSBURGH    CLOUDY    39  36  89 S6        30.01R WCI  35
$$

NYZ001>004-010>016-019>021-231300-
WEST


CITY           SKY/WX    TMP DP  RH WIND       PRES   REMARKS
NIAGARA FALLS  CLOUDY    47  39  74 SW12      30.00R
BUFFALO        CLOUDY    45  36  70 SW5       30.01R
DUNKIRK        CLOUDY    47  33  58 S18G25    30.02R
JAMESTOWN      CLOUDY    41  32  70 S7        30.05R
WELLSVILLE     CLOUDY    45  31  58 SW12      30.07R
ROCHESTER      CLOUDY    46  39  76 SW8       30.03R
PENN YAN       CLOUDY    49  37  63 SW9       30.05R
$$

             KEY
       WCI = WIND CHILL INDEX
       VSB = VISIBILITY
       HX  = HEAT INDEX
$$


USA.gov is the U.S. government's official web portal to all federal, state and local government web resources and services.